Weather History for YFRT - December, 2012

Change the Weather History Date:

Tuesday, December 11, 2012

  Actual Average Record
Temperature  
Mean Temperature 80 °F -  
Max Temperature 97 °F - - ()
Min Temperature 63 °F - - ()
Cooling Degree Days 15    
Growing Degree Days 30 (Base 50)    
Moisture  
Dew Point 45 °F    
Average Humidity 33    
Maximum Humidity 72    
Minimum Humidity 7    
Precipitation  
Precipitation 0.00 in - - ()
Sea Level Pressure  
Sea Level Pressure 29.94 in    
Wind  
Wind Speed 12 mph ()    
Max Wind Speed 23 mph    
Max Gust Speed 33 mph    
T = Trace of Precipitation, MM = Missing Value Source: Averaged Metar Reports

Daily Weather History Graph

Daily Weather History Graph

Search for Another Location

Airport or City:

Trip Planner

Search our weather history database for the weather conditions in past years. The results will help you decide how hot, cold, wet, or windy it might be!

Date:

Astronomy

Dec. 11, 2012 Rise Set
Actual Time 4:17 AM AWST 6:24 PM AWST
Civil Twilight 3:49 AM AWST 6:51 PM AWST
Nautical Twilight 3:16 AM AWST 7:25 PM AWST
Astronomical Twilight 2:40 AM AWST 8:01 PM AWST
Moon 2:06 AM AWST (12/11) 4:05 PM AWST (12/11)
Length of Visible Light 15h 01m
Length of Day
14h 06m
Waning Crescent, 7% of the Moon is Illuminated
Dec 11
Waning Crescent
Dec 13
New
Dec 20
First Quarter
Dec 28
Full
Jan 5
Last Quarter

Hourly Weather History & Observations

Time (AWST) Temp. Dew Point Humidity Pressure Visibility Wind Dir Wind Speed Gust Speed Precip Events Conditions
12:00 AM 64 °F 54 °F 61% 30.05 in - ESE 12.7 mph - -  
12:00 AM 64.4 °F 53.6 °F 68% 30.06 in - ESE 12.7 mph - N/A   Unknown
1:00 AM 64.4 °F 51.8 °F 64% 30.04 in - East 16.1 mph - N/A   Unknown
2:00 AM 64 °F 51 °F 54% 30.01 in - East 16.1 mph - -  
2:00 AM 64.4 °F 51.8 °F 64% 30.01 in - East 16.1 mph - N/A   Unknown
3:00 AM 63 °F 53 °F 62% 30.02 in - East 9.2 mph - -  
3:00 AM 62.6 °F 53.6 °F 72% 30.04 in - East 9.2 mph - N/A   Unknown
4:00 AM 64.4 °F 51.8 °F 64% 30.04 in - ENE 11.5 mph - N/A   Unknown
5:00 AM 64 °F 51 °F 53% 30.03 in - East 9.2 mph - -  
5:00 AM 64.4 °F 51.8 °F 64% 30.04 in - East 9.2 mph - N/A   Unknown
6:00 AM 65 °F 52 °F 54% 30.05 in - SE 9.2 mph - -  
6:00 AM 66.2 °F 51.8 °F 60% 30.06 in - SE 9.2 mph - N/A   Unknown
7:00 AM 68.0 °F 53.6 °F 60% 30.06 in - ESE 9.2 mph - N/A   Unknown
8:00 AM 72 °F 50 °F 34% 30.04 in - East 9.2 mph - -  
8:00 AM 71.6 °F 50.0 °F 46% 30.04 in - East 9.2 mph - N/A   Unknown
9:00 AM 76 °F 49 °F 28% 30.02 in - East 13.8 mph - -  
9:00 AM 75.2 °F 48.2 °F 38% 30.04 in - East 13.8 mph - N/A   Unknown
10:00 AM 80.6 °F 46.4 °F 30% 30.01 in - East 13.8 mph - N/A   Unknown
11:00 AM 90 °F 38 °F 9% 29.95 in - East 11.5 mph - -  
11:00 AM 91.4 °F 39.2 °F 16% 29.95 in - East 11.5 mph - N/A   Unknown
12:00 PM 91 °F 42 °F 10% 29.91 in - East 11.5 mph - -  
12:00 PM 91.4 °F 41.0 °F 17% 29.92 in - East 11.5 mph - N/A   Unknown
1:00 PM 93.2 °F 41.0 °F 16% 29.89 in - East 12.7 mph - N/A   Unknown
2:00 PM 93 °F 40 °F 9% 29.85 in - ENE 12.7 mph - -  
2:00 PM 93.2 °F 41.0 °F 16% 29.86 in - ENE 12.7 mph 24.2 mph N/A   Unknown
3:00 PM 96 °F 40 °F 7% 29.82 in - East 13.8 mph - -  
3:00 PM 96.8 °F 39.2 °F 14% 29.83 in - East 13.8 mph - N/A   Unknown
4:00 PM 96.8 °F 41.0 °F 15% 29.80 in - ENE 9.2 mph - N/A   Unknown
5:00 PM 96 °F 41 °F 8% 29.79 in - ENE 13.8 mph - -  
5:00 PM 95.0 °F 41.0 °F 15% 29.80 in - ENE 13.8 mph - N/A   Unknown
6:00 PM 92 °F 40 °F 9% 29.81 in - East 16.1 mph - -  
6:00 PM 93.2 °F 39.2 °F 15% 29.83 in - East 16.1 mph - N/A   Unknown
6:31 PM 89.6 °F 46.4 °F 22% 29.83 in - ESE 17.3 mph 33.4 mph N/A   Unknown
7:00 PM 86.0 °F 46.4 °F 25% 29.83 in - ESE 23.0 mph - N/A   Unknown
7:43 PM 82.4 °F 42.8 °F 25% 29.86 in - ESE 19.6 mph 32.2 mph N/A   Unknown
8:00 PM 82 °F 41 °F 14% 29.86 in - ESE 21.9 mph - -  
8:00 PM 82.4 °F 41.0 °F 23% 29.86 in - ESE 21.9 mph - N/A   Unknown
9:00 PM 79 °F 40 °F 15% 29.87 in - East 19.6 mph - -  
9:00 PM 78.8 °F 39.2 °F 24% 29.89 in - East 19.6 mph - N/A   Unknown
10:00 PM 77.0 °F 39.2 °F 26% 29.89 in - East 18.4 mph - N/A   Unknown
11:00 PM 76 °F 40 °F 17% 29.86 in - East 16.1 mph - -  
11:00 PM 75.2 °F 39.2 °F 27% 29.86 in - East 16.1 mph - N/A   Unknown